星链-34675 (STARLINK-34675)

导读

STARLINK-34675是美国SpaceX公司于2025年7月16日发射的星链低轨互联网通信卫星,属于星链星座扩容卫星。星链项目是全球规模最大的低轨卫星互联网星座,该卫星采用标准星链设计,搭载相控阵通信天线,使用霍尔推进器,运行在近地轨道,为全球提供高速低延迟宽带互联网接入服务,助力星链星座实现全球覆盖,服务个人用户及行业客户应用。

基本信息
目录编号:
64809
目录名称:
STARLINK-34675
国际标识:
2025-150V
轨道中心:
EARTH
卫星名称:
星链-34675
卫星全名:
星链-34675 (STARLINK-34675)
卫星状态:
在轨 (已飞行426 天)
发射日期:
2025-07-16 UTC
国别 :
美国 (US)
星等 :
--
该卫星已列入 空间交会检测服务 Space Conjunction Data Service (SCDS) ,当前飞行风险评估等级: 无高风险
轨道信息
数据来源 国际轨道数据 AOE轨道数据
星历时间 2026-09-14T22:19:34+0800
13小时前
查看轨道信息
2026-09-13T07:00:00+0800
2天前
查看轨道信息
半长轴 6950.175km 6950.17km
偏心率 0.0002867 0.0003286
轨道倾角 70.004° 70.004°
近地点辐角 269.489° 280.262°
升交点赤经 18.142° 22.272°
平近点角 90.594° 243.819°
近地点 570.045km 569.749km
远地点 574.031km 574.317km
周期 96.107分钟 96.107分钟
每日圈数 14.983358 14.983376
详细信息
固有亮度:
5
最大亮度:
2.5
卫星平台:
Starlink V1.0
覆盖范围:
全球
运营商:
太空探索技术公司
运营商所在国:
美国
制造商(研发单位):
太空探索技术公司
制造商所在国:
美国
使用方式:
暂无
卫星简介
Starlink 计划是 SpaceX 推出的全球卫星互联网项目,通过发射低轨道卫星,为全球尤其是偏远地区提供高速、低延迟的互联网服务。自 2019 年起,Starlink 已部署数千颗卫星,旨在缩小全球数字鸿沟,推动互联网普及。该项目还为军事、航空等行业提供通信支持,带来广泛经济效益。
2D轨道图
3D轨道图
轨道高度分析图
轨道倾角分析图
轨道综合分析图
查看轨道综合分析图
与全量物体交会距离演化趋势 订阅飞行安全评估服务
与全量物体交会风险概率演化趋势 订阅飞行安全评估服务